Weather History for Grand Island, NE

Change the Weather History Date:

Saturday, September 14, 2013

  Actual Average Record
Temperature  
Mean Temperature 67 °F 66 °F  
Max Temperature 76 °F 79 °F 99 °F (1939)
Min Temperature 58 °F 53 °F 35 °F (1945)
Degree Days  
Heating Degree Days 0 3  
Month to date heating degree days 1 24  
Since 1 July heating degree days 4 34  
Cooling Degree Days 2 4  
Month to date cooling degree days 138 73  
Year to date cooling degree days 1201 987  
Growing Degree Days 16 (Base 50)    
Moisture  
Dew Point 54 °F    
Average Humidity 67    
Maximum Humidity 81    
Minimum Humidity 53    
Precipitation  
Precipitation T in 0.07 in 2.43 in (1921)
Month to date precipitation 1.34 1.07  
Year to date precipitation 20.75 21.84  
Snow  
Snow 0.00 in 0.00 in - ()
Month to date snowfall 0.0 0.0  
Since 1 July snowfall 0.0 0.0  
Since 1 September snowfall 0.0 0.0  
Snow Depth 0.00 in    
Sea Level Pressure  
Sea Level Pressure 29.95 in    
Wind  
Wind Speed 10 mph (South)    
Max Wind Speed 20 mph    
Max Gust Speed 25 mph    
Visibility 10 miles    
Events Rain    
T = Trace of Precipitation, MM = Missing Value Source: NWS Daily Summary

Daily Weather History Graph

Daily Weather History Graph

Search for Another Location

Airport:

Trip Planner

Search our weather history database for the weather conditions in past years. The results will help you decide how hot, cold, wet, or windy it might be!

Date:

Astronomy

Sep. 14, 2013 Rise Set
Actual Time 7:13 AM CDT 7:43 PM CDT
Civil Twilight 6:45 AM CDT 8:11 PM CDT
Nautical Twilight 6:12 AM CDT 8:43 PM CDT
Astronomical Twilight 5:39 AM CDT 9:16 PM CDT
Moon 4:27 PM CDT (9/14) 1:44 AM CDT (9/14)
Length of Visible Light 13h 25m
Length of Day
12h 30m
Waxing Gibbous, 72% of the Moon is Illuminated
Sep 14
Waxing Gibbous
Sep 19
Full
Sep 26
Last Quarter
Oct 4
New
Oct 11
First Quarter

Hourly Weather History & Observations

Time (CDT) Temp. Dew Point Humidity Pressure Visibility Wind Dir Wind Speed Gust Speed Precip Events Conditions
12:53 AM 62.1 °F 51.1 °F 67% 30.04 in 10.0 mi SSE 10.4 mph - N/A   Clear
1:53 AM 61.0 °F 50.0 °F 67% 30.04 in 10.0 mi South 8.1 mph - N/A   Clear
2:53 AM 60.1 °F 50.0 °F 69% 30.04 in 10.0 mi South 8.1 mph - N/A   Clear
3:53 AM 57.9 °F 51.1 °F 78% 30.03 in 10.0 mi South 6.9 mph - N/A   Clear
4:53 AM 57.9 °F 50.0 °F 75% 30.02 in 10.0 mi SSE 9.2 mph - N/A   Clear
5:53 AM 60.1 °F 50.0 °F 69% 30.00 in 10.0 mi South 10.4 mph - N/A   Scattered Clouds
6:53 AM 60.1 °F 50.0 °F 69% 30.01 in 10.0 mi South 9.2 mph - 0.00 in   Overcast
7:53 AM 60.1 °F 51.1 °F 72% 30.02 in 10.0 mi South 8.1 mph - N/A   Mostly Cloudy
8:53 AM 61.0 °F 51.1 °F 70% 30.02 in 10.0 mi South 11.5 mph - N/A   Overcast
9:53 AM 64.9 °F 50.0 °F 58% 30.01 in 10.0 mi South 13.8 mph - N/A   Overcast
10:53 AM 66.9 °F 51.1 °F 57% 29.99 in 10.0 mi South 12.7 mph 21.9 mph N/A   Overcast
11:53 AM 66.9 °F 50.0 °F 54% 29.98 in 10.0 mi South 13.8 mph 23.0 mph N/A   Overcast
12:53 PM 69.1 °F 52.0 °F 54% 29.96 in 10.0 mi South 13.8 mph 23.0 mph 0.00 in   Overcast
1:53 PM 70.0 °F 54.0 °F 57% 29.94 in 10.0 mi South 15.0 mph - 0.00 in   Mostly Cloudy
1:55 PM 69.8 °F 53.6 °F 56% 29.96 in 10.0 mi South 15.0 mph - N/A   Mostly Cloudy
2:53 PM 69.1 °F 55.9 °F 63% 29.92 in 10.0 mi South 10.4 mph - 0.00 in Rain Light Rain
3:53 PM 72.0 °F 57.0 °F 59% 29.89 in 10.0 mi SSE 13.8 mph - 0.00 in   Clear
4:53 PM 75.9 °F 57.9 °F 54% 29.87 in 10.0 mi South 15.0 mph 21.9 mph N/A   Clear
5:53 PM 75.9 °F 59.0 °F 56% 29.86 in 10.0 mi South 13.8 mph - N/A   Scattered Clouds
6:53 PM 75.0 °F 57.9 °F 55% 29.85 in 10.0 mi South 9.2 mph - N/A   Clear
7:53 PM 69.1 °F 60.1 °F 73% 29.86 in 10.0 mi South 5.8 mph - N/A   Clear
8:53 PM 66.0 °F 61.0 °F 84% 29.86 in 10.0 mi ESE 3.5 mph - N/A   Clear
9:53 PM 69.1 °F 62.1 °F 78% 29.86 in 10.0 mi Calm Calm - N/A   Overcast
10:53 PM 68.0 °F 63.0 °F 84% 29.86 in 10.0 mi South 4.6 mph - N/A   Mostly Cloudy
11:53 PM 69.1 °F 63.0 °F 81% 29.86 in 10.0 mi South 6.9 mph - N/A   Mostly Cloudy